SCP
0 0 0 0 0 0 0 0 0 0 1 1 2 3 3 3 3 4 5 5 5 6 8 10 9 7 6 6 6 6 7 8 9 9 9 8 7 5 4 3 3 3 3 3
0 0 0 0 0 0 0 0 0 0 0 1 2 2 3 3 3 4 4 5 5 7 10 11 9 7 7 7 7 7 7 8 9 9 9 9 7 6 4 4 4 4 3 3
0 0 0 0 0 0 0 0 0 0 0 1 1 2 3 3 3 3 4 4 5 8 11 11 9 7 8 8 8 8 8 9 9 9 9 9 8 6 5 4 4 5 5 5
0 0 0 0 0 0 0 0 0 0 0 0 1 1 2 3 2 3 5 5 5 8 10 10 8 7 8 9 9 9 10 10 10 9 9 8 8 7 6 5 5 5 6 6
0 0 0 0 0 0 0 0 0 0 0 0 0 1 2 2 3 4 6 7 6 6 7 7 6 7 9 10 10 10 11 11 10 9 8 8 7 6 6 5 5 6 7 7
0 0 0 0 0 0 0 0 0 0 0 0 0 0 1 2 2 3 7 8 7 5 5 6 7 9 10 10 10 10 11 10 8 8 7 7 6 5 5 5 6 7 8 8
0 0 0 0 0 0 0 0 0 0 0 0 0 0 1 1 2 3 6 7 6 5 6 8 11 12 10 9 9 9 9 8 7 6 6 5 5 5 5 5 6 7 9 9
0 0 0 0 0 0 0 0 0 0 0 0 0 0 1 1 2 4 6 7 6 6 8 10 12 11 8 7 7 7 8 8 7 5 4 4 5 6 5 5 6 7 8 8
0 0 0 0 0 0 0 0 0 0 0 0 0 0 1 2 3 4 6 7 7 7 8 9 9 8 6 5 5 6 7 7 6 4 3 3 4 5 6 5 5 5 5 5
0 0 0 0 0 0 0 0 0 0 0 0 0 0 1 2 2 4 5 6 7 7 6 6 6 6 5 4 5 6 7 6 5 4 3 3 2 3 5 5 5 4 4 3
0 0 0 0 0 0 0 0 0 0 0 0 0 0 1 1 2 3 4 4 5 5 4 4 4 5 4 4 5 6 7 7 6 5 4 3 2 3 4 5 5 4 3 3
0 0 0 0 0 0 0 0 0 0 0 0 0 0 1 1 2 2 3 4 4 4 3 3 2 3 3 4 4 6 7 7 6 5 3 2 1 2 3 4 4 4 3 2
0 0 0 0 0 0 0 0 0 0 0 0 0 0 1 1 2 2 3 3 4 4 3 2 2 2 2 3 3 4 5 5 5 3 2 1 1 1 2 3 3 3 3 2
0 0 0 0 0 0 0 0 0 0 0 0 0 0 1 1 2 2 3 3 3 3 3 2 2 2 2 2 2 2 3 3 2 2 1 1 0 1 1 1 1 2 2 2
0 0 0 0 0 0 0 0 0 0 0 0 0 0 1 1 1 2 2 2 2 2 2 2 2 2 2 2 1 1 1 1 1 1 0 0 0 0 0 0 1 1 1 1
0 0 0 0 0 0 0 0 0 0 0 0 0 0 1 1 2 2 2 1 1 1 1 1 1 1 1 1 1 1 1 1 0 0 0 0 0 0 0 0 0 1 1 0
0 0 0 0 0 0 0 0 0 0 0 0 0 0 1 1 2 1 1 1 1 1 0 1 1 1 1 1 1 1 0 0 0 0 1 1 0 0 0 0 0 0 0 0
0 0 0 0 0 0 0 0 0 0 0 0 0 0 1 1 1 1 1 1 0 0 0 0 1 0 0 0 0 0 0 0 0 0 1 1 0 0 0 0 0 0 0 0
0 0 0 0 0 0 0 0 0 0 0 0 1 1 0 1 1 1 1 0 0 0 0 0 0 0 0 0 0 0 0 0 0 1 1 1 0 0 0 0 0 0 0 0
0 0 0 0 0 0 0 0 0 0 0 0 1 1 0 0 0 0 0 0 0 0 0 0 0 0 0 0 0 0 0 0 0 1 1 1 0 0 0 0 0 0 0 0
0 0 0 0 0 0 0 0 0 0 0 0 1 1 0 0 0 0 0 0 0 0 0 0 0 0 0 0 0 0 0 0 0 1 1 0 0 0 0 0 0 0 0 0
0 0 0 0 0 0 0 0 0 0 0 1 1 1 0 0 0 0 0 0 0 0 0 0 0 0 0 0 0 0 0 0 0 0 0 0 0 0 0 0 0 0 0 0
0 0 0 0 0 0 0 0 0 0 0 0 1 1 1 1 1 1 0 0 0 0 0 0 0 0 0 0 0 0 0 0 0 0 0 0 0 0 0 0 0 0 0 0
0 0 0 0 0 0 0 0 0 0 0 0 0 0 1 1 1 1 0 0 0 0 0 0 0 0 0 0 0 0 0 0 0 0 0 0 0 0 0 0 0 0 0 0
0 0 0 0 0 0 0 0 0 0 0 0 0 1 1 1 1 1 0 0 0 0 0 0 0 0 0 0 0 0 0 0 0 0 0 0 0 0 0 0 0 0 0 0
0 0 0 0 0 0 0 0 0 0 0 0 0 1 1 1 1 0 0 0 0 0 0 0 0 0 0 0 0 0 0 0 0 0 0 0 0 0 0 0 0 0 0 0
Wind_Speed
2 3 3 7 6 6 4 4 4 6 4 1 2 4 5 5 6 6 7 7 8 9 7 7 7 8 7 6 6 6 5 5 4 3 3 3 2 2 1 1 1 2 1 2
5 5 11 7 5 4 4 3 3 5 3 1 1 2 4 3 5 7 7 6 8 7 6 7 7 6 6 6 6 5 5 5 5 4 3 3 3 2 1 1 1 1 1 1
6 9 6 4 4 4 3 3 4 3 3 2 1 2 2 1 2 4 6 6 7 10 10 8 8 7 6 6 7 6 6 5 5 4 3 3 3 2 2 1 0 0 1 1
5 7 4 3 4 3 4 5 4 2 1 2 1 2 5 3 2 4 6 6 7 8 9 8 7 7 8 7 7 6 5 5 4 5 5 5 3 2 2 1 1 0 1 1
5 4 3 4 5 3 5 4 2 1 1 1 1 1 6 2 3 6 7 8 8 8 8 8 7 7 6 6 6 5 5 4 4 5 5 5 4 2 2 2 2 1 0 0
7 5 3 4 4 1 0 4 5 5 5 2 3 2 6 4 7 7 8 8 7 7 8 7 6 5 5 5 5 5 6 4 4 4 5 5 5 4 3 2 2 1 0 1
7 6 4 2 2 4 5 6 5 6 4 5 3 1 7 6 4 6 8 7 6 6 7 7 7 6 6 6 6 5 5 4 3 4 4 4 4 4 4 4 3 2 1 0
2 7 5 2 2 2 1 6 5 2 4 5 4 3 5 3 1 3 5 6 6 6 6 7 8 7 7 6 6 6 6 5 4 3 3 3 3 2 2 2 2 2 2 2
3 6 5 3 1 4 2 1 5 5 1 2 4 4 5 3 3 4 6 6 6 6 7 7 7 6 6 6 6 6 6 4 4 3 3 2 2 3 2 2 2 1 2 2
4 4 5 3 3 3 4 4 5 4 1 3 4 3 3 3 2 2 5 6 6 6 6 6 6 6 5 5 4 5 5 5 4 3 3 3 2 3 3 2 2 1 2 2
1 2 5 3 0 2 2 2 3 3 4 3 3 6 5 6 5 5 5 6 7 7 7 6 5 5 5 5 5 4 5 4 3 3 3 3 2 2 2 2 2 1 1 2
1 3 2 5 4 2 3 3 5 3 3 3 3 8 4 4 5 6 6 6 7 7 6 6 6 5 5 5 5 4 4 4 4 3 3 3 2 2 2 2 2 2 1 1
2 3 2 6 6 4 2 0 2 4 3 3 4 7 1 1 3 4 6 6 6 7 7 6 6 6 5 5 4 4 4 4 4 4 4 3 2 2 3 3 3 2 2 1
3 2 4 5 6 4 4 4 1 3 3 4 6 6 3 4 5 4 5 6 6 7 7 6 6 6 5 5 4 4 4 3 4 3 4 3 3 3 3 3 2 2 2 2
4 1 3 5 6 4 5 6 4 4 6 6 7 7 8 8 8 7 6 6 6 7 6 7 6 5 5 5 4 4 4 4 4 4 3 4 4 3 3 2 2 2 2 2
2 2 2 5 5 4 6 7 6 5 4 4 3 4 4 4 5 5 6 8 7 7 7 7 7 6 6 6 6 5 4 4 4 4 4 4 3 3 3 2 2 2 1 1
2 2 0 4 6 5 6 5 4 3 3 4 5 5 4 4 7 9 8 8 8 8 8 7 7 7 7 6 6 6 5 4 4 4 4 3 3 3 3 3 2 2 2 1
5 3 2 2 2 4 8 3 2 2 1 1 3 5 6 6 6 5 6 7 7 7 7 7 6 5 5 5 5 5 4 4 4 3 3 3 3 3 3 2 2 2 2 2
7 6 3 2 2 6 5 3 1 2 1 0 5 5 3 3 3 1 4 6 6 7 7 6 6 5 5 5 5 5 4 4 4 4 4 4 3 3 3 3 3 2 1 2
2 4 3 2 3 5 5 3 1 4 1 1 4 6 6 4 2 5 4 4 4 5 5 5 5 4 5 4 4 5 5 4 4 4 4 4 4 4 4 4 3 2 1 2
2 1 2 4 4 6 6 3 3 2 6 4 5 7 6 5 6 4 4 4 5 5 6 6 6 5 5 5 5 5 4 4 5 4 3 3 3 4 3 3 2 2 2 1
3 2 3 3 4 8 4 1 3 6 3 2 4 5 4 3 2 3 5 6 6 6 6 6 6 5 4 5 6 5 4 4 3 3 4 3 3 3 2 2 2 2 2 1
2 3 4 6 7 6 3 2 3 3 2 1 3 3 5 5 4 4 5 5 5 6 6 5 6 5 4 5 6 6 5 4 4 3 3 3 2 2 2 2 2 2 1 2
4 2 1 3 5 5 4 1 1 0 2 1 2 4 5 4 5 5 6 5 6 5 6 5 6 6 5 5 5 5 5 4 4 3 2 2 2 2 1 1 2 2 2 2
6 3 3 5 5 5 5 3 2 2 1 2 2 3 5 6 5 5 5 6 6 5 5 6 6 6 5 5 4 4 4 4 4 3 2 1 1 2 2 2 3 3 4 5
5 6 5 6 5 3 6 6 3 1 1 2 2 2 3 5 6 5 5 5 6 6 5 5 5 5 5 5 4 4 4 5 4 3 2 2 1 1 2 2 3 4 5 6
Wind_Direction
322 53 263 248 218 210 240 265 279 274 278 86 207 228 223 201 180 177 178 175 172 175 171 160 161 161 157 155 149 148 146 151 144 139 144 143 148 143 124 128 125 125 119 117
3 277 246 243 249 249 256 278 284 290 290 141 204 238 230 186 179 175 175 179 170 161 156 160 162 161 160 157 156 153 151 158 157 160 159 154 145 143 140 135 96 102 104 98
231 252 255 240 264 279 284 225 229 250 317 9 75 326 272 227 177 173 167 170 168 170 166 166 166 164 161 166 168 168 165 163 158 146 121 106 88 72 72 72 84 111 112 93
255 264 278 276 267 233 264 241 229 238 45 290 128 261 274 222 217 204 180 168 173 172 168 165 165 171 174 181 170 161 159 153 151 145 138 140 141 148 173 165 168 160 116 115
280 288 306 283 265 228 231 247 267 256 140 4 349 159 275 232 217 220 201 182 178 175 169 169 170 173 171 164 152 149 145 147 148 141 144 140 140 153 142 123 121 103 340 94
260 268 233 238 271 242 67 29 15 35 64 2 259 184 268 239 220 212 199 187 178 172 168 163 155 142 134 130 131 135 139 145 146 142 141 146 150 153 145 146 146 147 31 9
315 313 292 230 339 354 55 64 23 359 6 264 280 218 251 256 240 200 182 177 173 165 158 151 148 147 141 141 141 146 140 135 145 142 143 149 154 155 162 167 167 163 167 204
312 301 298 294 173 196 180 121 144 216 249 280 313 252 261 283 121 118 138 147 147 146 146 147 150 150 150 152 152 155 147 146 145 139 144 148 147 149 157 166 165 177 193 208
213 268 289 295 260 147 128 152 163 143 271 284 281 289 304 3 58 91 106 122 146 149 146 145 143 143 148 154 157 159 153 150 156 155 149 141 137 138 152 167 165 185 214 216
188 257 292 307 22 21 140 153 91 103 161 277 291 282 258 259 228 151 144 147 150 143 139 139 138 139 140 147 149 151 154 157 162 155 155 141 141 148 159 151 163 211 235 220
115 198 299 348 184 227 30 47 102 126 162 173 272 272 234 212 190 177 171 157 153 154 151 144 141 142 137 139 147 152 156 153 149 146 149 145 152 154 155 168 194 224 234 203
7 120 270 275 271 197 150 164 140 152 230 179 212 268 260 191 179 162 153 151 154 152 143 141 142 140 140 147 155 156 155 155 162 152 144 155 165 155 163 191 207 213 224 219
15 86 15 338 341 1 20 297 155 145 143 175 202 262 273 136 136 140 143 151 151 146 142 143 142 150 158 158 158 159 161 163 162 154 150 154 167 162 183 203 211 213 212 229
62 109 171 213 240 261 281 288 250 139 177 217 224 237 234 188 172 164 154 149 152 151 152 152 155 163 163 162 163 162 168 167 164 160 158 166 185 188 195 204 213 221 212 205
65 198 244 253 255 261 278 282 266 240 217 210 232 217 216 198 186 174 159 150 151 156 157 161 163 168 166 165 167 168 171 174 171 165 169 188 195 194 195 205 217 220 207 195
41 216 293 296 285 295 290 281 270 260 248 235 212 236 220 170 150 155 160 161 169 175 173 170 169 171 173 173 175 175 179 179 169 173 189 197 186 189 202 213 203 193 200 202
229 177 274 284 306 333 290 262 248 251 242 180 202 220 158 146 171 177 174 171 180 180 178 176 175 180 182 181 178 182 184 176 169 183 193 192 190 192 207 205 186 198 210 210
185 175 177 255 336 251 248 256 242 181 224 190 162 157 171 183 184 177 171 172 180 179 177 176 175 180 186 183 180 180 174 172 175 183 193 195 185 182 179 179 199 212 208 211
183 167 168 179 242 271 287 301 235 173 299 211 138 148 147 114 82 243 190 174 180 180 174 175 176 176 179 180 180 169 172 177 176 187 196 192 181 175 174 186 215 218 208 236
137 135 155 188 215 247 256 285 338 87 307 270 143 154 153 125 165 237 201 172 164 161 161 164 161 158 168 181 169 162 174 178 188 196 195 187 183 178 185 200 217 220 215 239
350 33 182 211 234 255 255 287 62 122 237 230 171 168 167 191 208 208 166 158 158 157 159 156 154 162 177 173 153 156 168 190 200 188 175 172 179 183 192 199 206 210 221 248
231 206 207 189 215 252 282 45 174 222 230 192 174 174 175 180 145 140 153 153 153 150 152 153 152 164 173 161 151 156 182 199 188 169 169 175 182 192 185 183 216 217 210 244
244 206 210 205 222 249 275 224 214 168 145 199 172 175 153 151 155 155 161 159 157 156 157 156 155 159 169 166 159 167 192 184 164 148 171 184 190 196 188 188 213 236 236 239
282 316 280 283 272 288 304 328 341 135 164 193 170 153 150 157 160 155 161 160 157 160 159 155 152 159 173 177 171 174 173 160 151 160 175 189 186 213 229 218 214 221 237 241
260 299 292 275 284 330 328 317 305 328 53 91 116 139 152 146 154 163 165 165 163 160 159 157 161 170 179 176 175 176 169 152 148 161 175 181 211 224 240 251 241 234 240 226
223 213 221 251 257 255 276 287 308 341 268 165 141 128 148 153 159 159 162 164 157 157 158 160 164 170 172 165 169 177 172 157 152 164 186 195 214 252 244 248 289 285 257 267